Siskiyou Pass Past Weather

Last 30 Days

 
High: 44ºf @2:54 AM    Low: 42ºf @10:54 AM     Approx. Precipitation / Rain Total: in.
Time (PST)Temp. (ºf)Humidity (%)Dew Point (ºf)Barometer (inHG)Wind Speed (mph)Wind DirectionWind Gust (mph)1hr. Precip / Rain Total (in.)Snow Depth
10:54 AM429540.67-4.34ese11.3--
9:54 AM449241.83-6.08ese14.77--
8:54 AM449743.2-3.48se12.17--
7:54 AM449542.66-7.82ese17.38--
6:54 AM449642.93-6.95ese14.77--
5:54 AM449642.93-6.95se14.77--
2:54 AM449342.11-5.21se19.12--
1:54 AM449642.93-5.21se13.9--
12:54 AM439541.67-5.21se15.64--
High: 45ºf @12:54 PM    Low: 42ºf @8:54 PM     Approx. Precipitation / Rain Total: in.
Time (PST)Temp. (ºf)Humidity (%)Dew Point (ºf)Barometer (inHG)Wind Speed (mph)Wind DirectionWind Gust (mph)1hr. Precip / Rain Total (in.)Snow Depth
11:54 PM439441.39-6.08se13.03--
10:54 PM439441.39-3.48se13.03--
9:54 PM439541.67-6.08se18.25--
8:54 PM429440.4-7.82ese15.64--
7:54 PM429741.21-4.34se17.38--
6:54 PM449041.26-7.82se20.86--
4:54 PM449041.26-7.82ese13.9--
3:54 PM448539.79-7.82ese16.51--
1:54 PM448740.38-6.08se13.9--
12:54 PM458741.37-3.48se17.38--
11:54 AM449342.11-8.69ese16.51--
10:54 AM439541.67-6.08se13.03--
9:54 AM439441.39-4.34se15.64--
7:54 AM429640.94-4.34se13.03--
6:54 AM439441.39-6.08se19.99--
5:54 AM439140.56-6.08se13.03--
4:54 AM439040.27-6.08ese13.9--
3:54 AM449041.26-6.08ese16.51--
1:54 AM448940.97-6.08se13.03--
High: 47ºf @12:54 PM    Low: 35ºf @12:54 AM     Approx. Precipitation / Rain Total: in.
Time (PST)Temp. (ºf)Humidity (%)Dew Point (ºf)Barometer (inHG)Wind Speed (mph)Wind DirectionWind Gust (mph)1hr. Precip / Rain Total (in.)Snow Depth
11:54 PM448539.79-4.34se14.77--
10:54 PM457938.89-6.95se13.03--
9:54 PM448640.09-6.08se13.9--
8:54 PM448439.48-4.34se11.3--
7:54 PM439541.67-5.21se10.43--
6:54 PM429640.94-6.08se13.03--
5:54 PM439641.94-6.08se13.03--
4:54 PM439641.94-3.48se9.56--
3:54 PM429841.48-2.61se7.82--
2:54 PM439742.21-1.74sse11.3--
1:54 PM459343.1-2.61sse8.69--
12:54 PM478843.63-1.74s8.69--
11:54 AM459443.38-0.87s5.21--
10:54 AM449241.83-1.74s7.82--
9:54 AM4110041-0.87ssw5.21--
8:54 AM4010040-0.87s4.34--
7:54 AM3910039-0.87ssw6.08--
6:54 AM3710037---1.74--
5:54 AM3710037---2.61--
4:54 AM3710037---2.61--
1:54 AM369935.75---1.74--
12:54 AM359834.49---1.74--
High: 45ºf @2:54 PM    Low: 30ºf @12:54 AM     Approx. Precipitation / Rain Total: in.
Time (PST)Temp. (ºf)Humidity (%)Dew Point (ºf)Barometer (inHG)Wind Speed (mph)Wind DirectionWind Gust (mph)1hr. Precip / Rain Total (in.)Snow Depth
11:54 PM359834.49---1.74--
10:54 PM359734.24---1.74--
9:54 PM359734.24---2.61--
8:54 PM359633.98---1.74--
7:54 PM369634.97---1.74--
6:54 PM369634.97---2.61--
4:54 PM399537.69-0.87nw5.21--
3:54 PM419038.3-2.61nw6.95--
2:54 PM458139.53---2.61--
1:54 PM448439.48-0.87nw3.48--
12:54 PM428537.82-0.87nw5.21--
10:54 AM399036.32-3.48nw9.56--
9:54 AM389336.16-2.61n7.82--
8:54 AM369935.75-1.74n7.82--
7:54 AM329931.75-0.87ne3.48--
6:54 AM3210032-0.87ne3.48--
4:54 AM3410034-0.87ese6.95--
2:54 AM3410034-2.61n6.95--
1:54 AM329931.75-0.87nnw3.48--
12:54 AM309929.75-0.87e3.48--
High: 53ºf @10:54 AM    Low: 30ºf @10:54 PM     Approx. Precipitation / Rain Total: in.
Time (PST)Temp. (ºf)Humidity (%)Dew Point (ºf)Barometer (inHG)Wind Speed (mph)Wind DirectionWind Gust (mph)1hr. Precip / Rain Total (in.)Snow Depth
10:54 PM309929.75---3.48--
9:54 PM309929.75---2.61--
8:54 PM319930.75-0.87n3.48--
7:54 PM329931.75-2.61nne4.34--
6:54 PM329931.75-0.87ne2.61--
5:54 PM359934.75---2.61--
3:54 PM409538.69-2.61nw8.69--
2:54 PM429039.28-3.48nw10.43--
1:54 PM468240.82-4.34nw9.56--
12:54 PM487941.8-3.48nw8.69--
11:54 AM497742.11-3.48nw8.69--
10:54 AM537143.85---3.48--
9:54 AM497942.77---2.61--
8:54 AM409939.74---2.61--
7:54 AM3610036-0.87ne2.61--
6:54 AM3410034-0.87ne3.48--
5:54 AM3510035-0.87ne2.61--
4:54 AM3610036-1.74ne2.61--
2:54 AM3610036---2.61--
1:54 AM3510035---3.48--
12:54 AM3510035---3.48--
High: 44ºf @12:54 PM    Low: 35ºf @7:54 AM     Approx. Precipitation / Rain Total: in.
Time (PST)Temp. (ºf)Humidity (%)Dew Point (ºf)Barometer (inHG)Wind Speed (mph)Wind DirectionWind Gust (mph)1hr. Precip / Rain Total (in.)Snow Depth
11:54 PM3510035-0.87n2.61--
10:54 PM3510035---2.61--
9:54 PM3510035-0.87ne2.61--
8:54 PM3510035---1.74--
7:54 PM369935.75-0.87ene2.61--
6:54 PM369935.75---1.74--
5:54 PM389937.74---2.61--
4:54 PM399838.48---2.61--
3:54 PM429540.67-0.87sse4.34--
1:54 PM439240.84-0.87ssw5.21--
12:54 PM449241.83-0.87ssw5.21--
11:54 AM449442.39-0.87s6.95--
10:54 AM429640.94-0.87se3.48--
9:54 AM419940.74-0.87e3.48--
8:54 AM3810038---2.61--
7:54 AM3510035-0.87ene2.61--
6:54 AM3510035---2.61--
5:54 AM3510035---1.74--
4:54 AM3610036---3.48--
3:54 AM3610036-0.87s6.08--
2:54 AM3510035-0.87ssw4.34--
1:54 AM3610036-0.87s5.21--
12:54 AM3510035-1.74ssw4.34--
High: 37ºf @12:54 PM    Low: 30ºf @12:54 AM     Approx. Precipitation / Rain Total: in.
Time (PST)Temp. (ºf)Humidity (%)Dew Point (ºf)Barometer (inHG)Wind Speed (mph)Wind DirectionWind Gust (mph)1hr. Precip / Rain Total (in.)Snow Depth
11:54 PM3510035-1.74s5.21--
10:54 PM3510035-1.74s6.08--
9:54 PM3510035-1.74s5.21--
8:54 PM349933.75-1.74s7.82--
7:54 PM349933.75-1.74ssw6.95--
6:54 PM349933.75-1.74ssw5.21--
5:54 PM339932.75---4.34--
2:54 PM359734.24-1.74s6.95--
1:54 PM359633.98-2.61s6.08--
12:54 PM379535.7-1.74sse4.34--
11:54 AM369534.71-0.87s4.34--
10:54 AM359633.98-1.74s4.34--
9:54 AM349833.5-1.74s6.95--
8:54 AM329931.75------
7:54 AM319930.75------
6:54 AM319930.75------
5:54 AM319930.75------
3:54 AM329831.5-1.74sse6.95--
2:54 AM319830.5-2.61sse6.95--
1:54 AM319830.5-0.87s10.43--
12:54 AM309829.5-2.61sse7.82--
High: 33ºf @11:54 AM    Low: 30ºf @12:54 AM     Approx. Precipitation / Rain Total: in.
Time (PST)Temp. (ºf)Humidity (%)Dew Point (ºf)Barometer (inHG)Wind Speed (mph)Wind DirectionWind Gust (mph)1hr. Precip / Rain Total (in.)Snow Depth
11:54 PM309829.5-1.74s6.08--
10:54 PM309729.25-1.74sse6.95--
9:54 PM309729.25-3.48se8.69--
7:54 PM319730.25-4.34se15.64--
6:54 PM309629-3.48sse10.43--
5:54 PM309629-2.61sse12.17--
4:54 PM319429.48-6.08se13.03--
3:54 PM319529.74-2.61sse10.43--
2:54 PM329330.21-1.74sse12.17--
1:54 PM328929.13-3.48se11.3--
12:54 PM328929.13-2.61sse16.51--
11:54 AM338528.99-6.95se15.64--
10:54 AM328728.58-6.08se13.9--
6:54 AM318527.03-5.21ese10.43--
5:54 AM308927.16-3.48se10.43--
4:54 AM308726.61-3.48se9.56--
3:54 AM318226.16-6.08e13.9--
2:54 AM308225.18-5.21ese10.43--
1:54 AM309027.43-3.48se7.82--
12:54 AM308826.89-4.34se9.56--
High: 43ºf @12:54 PM    Low: 14ºf @7:54 AM     Approx. Precipitation / Rain Total: in.
Time (PST)Temp. (ºf)Humidity (%)Dew Point (ºf)Barometer (inHG)Wind Speed (mph)Wind DirectionWind Gust (mph)1hr. Precip / Rain Total (in.)Snow Depth
11:54 PM308626.33-3.48se8.69--
10:54 PM298825.9-3.48ese6.95--
9:54 PM279124.73-0.87s8.69--
8:54 PM279224.99-1.74sse8.69--
7:54 PM259423.52---2.61--
6:54 PM269224---3.48--
5:54 PM298224.21-1.74se6.95--
4:54 PM308024.59-3.48ese6.95--
3:54 PM337425.63-1.74s6.95--
2:54 PM386928.75-0.87s4.34--
1:54 PM426330.33-0.87wsw3.48--
12:54 PM436431.67---3.48--
11:54 AM406529.2-0.87sw3.48--
9:54 AM327524.99-1.74nnw6.08--
8:54 AM208516.23-0.87e3.48--
7:54 AM148610.6-1.74e4.34--
5:54 AM188915.32-1.74e6.08--
3:54 AM198816.04-1.74ene6.95--
1:54 AM219018.54-2.61ne6.95--
12:54 AM179014.58-1.74ne3.48--
High: 42ºf @1:54 PM    Low: 17ºf @11:54 PM     Approx. Precipitation / Rain Total: in.
Time (PST)Temp. (ºf)Humidity (%)Dew Point (ºf)Barometer (inHG)Wind Speed (mph)Wind DirectionWind Gust (mph)1hr. Precip / Rain Total (in.)Snow Depth
11:54 PM179114.84-0.87ne3.48--
10:54 PM199016.56-0.87ene5.21--
9:54 PM239020.51-2.61ne6.95--
8:54 PM229220.04-0.87nne3.48--
7:54 PM249121.76-0.87e3.48--
6:54 PM259523.77---1.74--
5:54 PM319128.69-1.74nne6.08--
4:54 PM309227.96-1.74nnw7.82--
3:54 PM339130.67-2.61nw6.95--
2:54 PM368832.8-1.74nnw6.08--
1:54 PM428136.6-0.87wsw5.21--
12:54 PM408134.65-0.87se5.21--
11:54 AM408535.86-0.87ssw3.48--
10:54 AM389135.61-0.87e2.61--
9:54 AM329530.73-0.87e2.61--
8:54 AM299628.01---2.61--
7:54 AM279626.01---1.74--
6:54 AM279726.26---1.74--
5:54 AM279726.26---1.74--
4:54 AM289727.26---2.61--
3:54 AM289727.26---1.74--
2:54 AM279726.26---2.61--
1:54 AM289727.26-0.87sse3.48--
12:54 AM279726.26---2.61--
High: 35ºf @11:54 AM    Low: 25ºf @8:54 PM     Approx. Precipitation / Rain Total: in.
Time (PST)Temp. (ºf)Humidity (%)Dew Point (ºf)Barometer (inHG)Wind Speed (mph)Wind DirectionWind Gust (mph)1hr. Precip / Rain Total (in.)Snow Depth
11:54 PM279626.01---2.61--
10:54 PM279626.01---1.74--
9:54 PM269625.02---3.48--
8:54 PM259523.77-0.87ne2.61--
7:54 PM269625.02---1.74--
6:54 PM289727.26-0.87nw2.61--
5:54 PM289627.01-0.87s5.21--
4:54 PM309629-3.48se9.56--
3:54 PM319529.74-5.21se12.17--
2:54 PM339431.47-5.21se13.03--
1:54 PM339531.73-4.34ese12.17--
12:54 PM329530.73-6.08se12.17--
11:54 AM359533.72-3.48se10.43--
10:54 AM329630.99-5.21ese10.43--
9:54 AM329731.25-3.48ese6.95--
8:54 AM319730.25-0.87s6.95--
7:54 AM299728.26---1.74--
6:54 AM299728.26---2.61--
5:54 AM309829.5-0.87ssw6.08--
4:54 AM309829.5-0.87sse6.95--
3:54 AM309829.5-4.34ese9.56--
2:54 AM309829.5-3.48e8.69--
1:54 AM309729.25-5.21ese13.03--
12:54 AM309729.25-6.08se19.12--
High: 30ºf @1:54 AM    Low: 25ºf @8:54 PM     Approx. Precipitation / Rain Total: in.
Time (PST)Temp. (ºf)Humidity (%)Dew Point (ºf)Barometer (inHG)Wind Speed (mph)Wind DirectionWind Gust (mph)1hr. Precip / Rain Total (in.)Snow Depth
10:54 PM279626.01-9.56ese21.72--
9:54 PM269524.77-9.56se19.99--
8:54 PM259523.77-7.82se18.25--
7:54 PM269524.77-6.95se18.25--
6:54 PM269524.77-7.82se23.46--
5:54 PM279525.76-6.95se18.25--
4:54 PM279525.76-6.95ese14.77--
3:54 PM279525.76-3.48sse14.77--
2:54 PM279425.51-6.95se16.51--
1:54 PM289326.24-8.69se17.38--
12:54 PM289326.24-4.34sse15.64--
11:54 AM289225.98-4.34se12.17--
10:54 AM289125.72-1.74s8.69--
9:54 AM288423.8-2.61sse6.95--
8:54 AM297221.12---2.61--
7:54 AM278322.54---1.74--
5:54 AM258420.86---2.61--
4:54 AM268522.12---2.61--
3:54 AM268522.12-0.87nw6.95--
2:54 AM278121.96-1.74se9.56--
1:54 AM307322.41-3.48nw14.77--
High: 45ºf @12:54 PM    Low: 31ºf @10:54 PM     Approx. Precipitation / Rain Total: in.
Time (PST)Temp. (ºf)Humidity (%)Dew Point (ºf)Barometer (inHG)Wind Speed (mph)Wind DirectionWind Gust (mph)1hr. Precip / Rain Total (in.)Snow Depth
11:54 PM326320.85-6.08nnw16.51--
10:54 PM317824.96-3.48nnw13.9--
8:54 PM356223.32-2.61nnw9.56--
7:54 PM365722.26-2.61n11.3--
6:54 PM365722.26-3.48n9.56--
5:54 PM375622.78-2.61nw9.56--
4:54 PM375522.35-3.48nw8.69--
2:54 PM414923.32-4.34n13.03--
1:54 PM444524.04-3.48nnw13.03--
12:54 PM454122.73-5.21nw15.64--
11:54 AM424924.24-4.34n13.9--
9:54 AM376325.59-4.34n13.9--
8:54 AM376425.97-2.61n10.43--
7:54 AM366425.02-3.48nnw10.43--
6:54 AM356223.32-2.61nnw9.56--
4:54 AM347426.6-2.61wnw10.43--
3:54 AM356725.17-3.48nw13.9--
2:54 AM366425.02-4.34nw18.25--
1:54 AM366726.12-6.08nw19.12--
12:54 AM367528.86-6.08nw13.9--
High: 54ºf @1:54 PM    Low: 28ºf @2:54 AM     Approx. Precipitation / Rain Total: in.
Time (PST)Temp. (ºf)Humidity (%)Dew Point (ºf)Barometer (inHG)Wind Speed (mph)Wind DirectionWind Gust (mph)1hr. Precip / Rain Total (in.)Snow Depth
11:54 PM387229.79-6.08wnw14.77--
10:54 PM417433.36-4.34nw17.38--
9:54 PM407934.02-2.61nw10.43--
8:54 PM427434.32-1.74nnw11.3--
7:54 PM446533-1.74nnw9.56--
6:54 PM426129.54-1.74nw6.08--
5:54 PM426229.94-1.74wnw6.08--
4:54 PM465530.75-1.74w8.69--
3:54 PM504529.5-3.48nw11.3--
2:54 PM534029.33-4.34nw13.9--
1:54 PM544030.23-5.21nw13.9--
12:54 PM544130.84-6.08nw14.77--
11:54 AM534431.68-3.48nw13.9--
10:54 AM514731.49-4.34nw13.03--
9:54 AM514530.41-0.87wnw7.82--
8:54 AM436030.08-2.61ne6.95--
7:54 AM387129.45-2.61n11.3--
6:54 AM357527.89-2.61n9.56--
5:54 AM308225.18-1.74ene5.21--
4:54 AM318527.03-0.87ne4.34--
3:54 AM298224.21-0.87ene4.34--
2:54 AM288524.09-2.61ene4.34--
1:54 AM298224.21-2.61ne6.08--
12:54 AM308124.89-3.48ne6.08--
High: 59ºf @1:54 PM    Low: 27ºf @1:54 AM     Approx. Precipitation / Rain Total: in.
Time (PST)Temp. (ºf)Humidity (%)Dew Point (ºf)Barometer (inHG)Wind Speed (mph)Wind DirectionWind Gust (mph)1hr. Precip / Rain Total (in.)Snow Depth
11:54 PM308425.76-2.61ne6.08--
10:54 PM308425.76-1.74ne5.21--
9:54 PM318326.45-2.61ne5.21--
8:54 PM328126.84-3.48ne5.21--
7:54 PM348028.49-3.48ne5.21--
6:54 PM357929.16-1.74ne3.48--
5:54 PM397130.41-1.74nne3.48--
4:54 PM455630.26---7.82--
3:54 PM504730.57-3.48nw10.43--
2:54 PM544231.43-3.48nw11.3--
1:54 PM593632.09-2.61nw6.95--
12:54 PM573831.65-0.87nw7.82--
11:54 AM534331.11-2.61nw8.69--
10:54 AM504831.09-4.34nw9.56--
9:54 AM475330.77-2.61nw7.82--
8:54 AM367829.82-1.74ene3.48--
7:54 AM318727.59-0.87ne5.21--
6:54 AM338228.12-1.74nnw7.82--
5:54 AM279124.73-1.74n4.34--
4:54 AM289125.72-1.74nne5.21--
3:54 AM288925.19-1.74ene4.34--
2:54 AM288925.19-1.74ne5.21--
1:54 AM279124.73-0.87n3.48--
12:54 AM298926.17-2.61ne4.34--
High: 58ºf @12:54 PM    Low: 24ºf @6:54 AM     Approx. Precipitation / Rain Total: in.
Time (PST)Temp. (ºf)Humidity (%)Dew Point (ºf)Barometer (inHG)Wind Speed (mph)Wind DirectionWind Gust (mph)1hr. Precip / Rain Total (in.)Snow Depth
11:54 PM289025.45---3.48--
10:54 PM308526.05-1.74nne5.21--
9:54 PM338228.12-1.74ne4.34--
8:54 PM347827.88-1.74ene6.95--
7:54 PM348028.49-1.74ne4.34--
6:54 PM367930.13-1.74ne2.61--
5:54 PM407332.06-0.87ne3.48--
4:54 PM476134.26---3.48--
3:54 PM524832.92-0.87ssw6.08--
2:54 PM554232.33-2.61s6.95--
1:54 PM583832.54-2.61sse7.82--
12:54 PM583933.18-2.61s6.95--
11:54 AM554131.74-1.74s6.08--
9:54 AM455730.69---1.74--
8:54 AM348229.09---2.61--
7:54 AM269324.26---3.48--
6:54 AM249222.02-1.74ne4.34--
5:54 AM259223.01-0.87ne4.34--
4:54 AM249322.28-0.87ne3.48--
3:54 AM259122.75-0.87nne3.48--
2:54 AM259122.75-0.87n2.61--
12:54 AM278924.2-1.74nne3.48--
High: 51ºf @1:54 PM    Low: 24ºf @6:54 AM     Approx. Precipitation / Rain Total: in.
Time (PST)Temp. (ºf)Humidity (%)Dew Point (ºf)Barometer (inHG)Wind Speed (mph)Wind DirectionWind Gust (mph)1hr. Precip / Rain Total (in.)Snow Depth
11:54 PM278823.93---3.48--
10:54 PM278723.66-0.87nnw3.48--
9:54 PM298625.35-0.87nne4.34--
8:54 PM308425.76-0.87nne4.34--
7:54 PM318226.16-2.61ne5.21--
6:54 PM337927.21-2.61ne4.34--
5:54 PM396227.1-0.87nnw6.08--
4:54 PM425527.02-1.74nw6.95--
3:54 PM474627.31-2.61nw9.56--
2:54 PM504227.82-2.61nw9.56--
1:54 PM514128.14-2.61nw8.69--
12:54 PM504227.82-3.48nw10.43--
11:54 AM494528.59-3.48nw9.56--
9:54 AM435126.12-2.61nnw9.56--
8:54 AM376425.97-1.74nnw8.69--
7:54 AM297722.71-0.87e5.21--
6:54 AM248620.43-1.74ne4.34--
5:54 AM258521.14-1.74n4.34--
4:54 AM268421.84-2.61ne4.34--
3:54 AM268321.56-0.87ene4.34--
12:54 AM307623.37-0.87e4.34--
High: 51ºf @1:54 PM    Low: 35ºf @10:54 PM     Approx. Precipitation / Rain Total: in.
Time (PST)Temp. (ºf)Humidity (%)Dew Point (ºf)Barometer (inHG)Wind Speed (mph)Wind DirectionWind Gust (mph)1hr. Precip / Rain Total (in.)Snow Depth
10:54 PM356424.07-2.61ne6.95--
9:54 PM366123.87-3.48ne8.69--
8:54 PM385623.72-3.48n11.3--
7:54 PM385623.72-3.48ne9.56--
6:54 PM415023.8-2.61nne13.03--
5:54 PM424823.75-2.61nw13.03--
4:54 PM444423.5-4.34nw15.64--
2:54 PM493321.16-6.08nw18.25--
1:54 PM513020.67-5.21nw16.51--
12:54 PM513020.67-6.08nw16.51--
11:54 AM503523.44-6.08nw28.68--
10:54 AM483924.24-6.08nw20.86--
9:54 AM464525.86-6.95nw19.99--
7:54 AM416329.38-1.74s11.3--
6:54 AM396929.71-1.74n14.77--
4:54 AM397230.75-3.48nne26.07--
3:54 AM397431.43-5.21nnw14.77--
2:54 AM397832.73-6.08nnw18.25--
1:54 AM397933.05-5.21n18.25--
12:54 AM398133.67-5.21n16.51--
High: 56ºf @12:54 PM    Low: 39ºf @8:54 PM     Approx. Precipitation / Rain Total: in.
Time (PST)Temp. (ºf)Humidity (%)Dew Point (ºf)Barometer (inHG)Wind Speed (mph)Wind DirectionWind Gust (mph)1hr. Precip / Rain Total (in.)Snow Depth
11:54 PM407934.02-4.34nnw14.77--
10:54 PM398334.28-3.48nne18.25--
9:54 PM398434.58-6.08nw23.46--
8:54 PM398835.75-6.95nw22.59--
6:54 PM408836.74-6.95nnw18.25--
5:54 PM418536.84-6.08n16.51--
4:54 PM457136.17-6.08nnw16.51--
3:54 PM476636.24-4.34nnw13.9--
2:54 PM515736.31-5.21nw13.03--
1:54 PM534532.23-5.21n14.77--
12:54 PM564132.64-4.34nnw14.77--
11:54 AM524832.92-5.21n14.77--
10:54 AM544432.58-5.21n15.64--
9:54 AM524832.92-4.34nnw11.3--
8:54 AM465832.06-1.74wnw9.56--
7:54 AM417031.98-1.74nw9.56--
5:54 AM436632.43-3.48nw14.77--
4:54 AM466936.41-4.34wnw14.77--
3:54 AM487841.47-1.74wnw9.56--
2:54 AM438438.5-0.87ne3.48--
12:54 AM438338.2-0.87ese4.34--
High: 70ºf @12:54 PM    Low: 36ºf @6:54 AM     Approx. Precipitation / Rain Total: in.
Time (PST)Temp. (ºf)Humidity (%)Dew Point (ºf)Barometer (inHG)Wind Speed (mph)Wind DirectionWind Gust (mph)1hr. Precip / Rain Total (in.)Snow Depth
11:54 PM448238.86-0.87nnw3.48--
10:54 PM487540.46-0.87wnw7.82--
9:54 PM497240.37-0.87sse6.95--
8:54 PM487640.8---4.34--
7:54 PM477639.83-1.74ne3.48--
6:54 PM507442.04-0.87ne6.08--
5:54 PM527142.89-1.74ene5.21--
4:54 PM566243.17-0.87ene6.08--
3:54 PM615042.22-1.74wnw8.69--
2:54 PM664141.62-3.48se11.3--
1:54 PM683740.75-5.21se11.3--
12:54 PM703641.81-1.74s7.82--
10:54 AM634742.45-1.74nw5.21--
9:54 AM575942.81---1.74--
8:54 AM449041.26---2.61--
7:54 AM389536.7-0.87nne4.34--
6:54 AM369634.97-0.87nne3.48--
5:54 AM379535.7-1.74ne4.34--
4:54 AM379435.44-2.61ne4.34--
3:54 AM389336.16-2.61ne5.21--
2:54 AM389135.61-1.74nne4.34--
1:54 AM399136.6-3.48ne5.21--
12:54 AM388935.05-1.74nne4.34--
High: 63ºf @12:54 PM    Low: 35ºf @5:54 AM     Approx. Precipitation / Rain Total: in.
Time (PST)Temp. (ºf)Humidity (%)Dew Point (ºf)Barometer (inHG)Wind Speed (mph)Wind DirectionWind Gust (mph)1hr. Precip / Rain Total (in.)Snow Depth
11:54 PM398936.04-1.74nne3.48--
9:54 PM438137.58-1.74ne4.34--
8:54 PM448138.55-2.61ne4.34--
7:54 PM457537.56-1.74ene3.48--
6:54 PM477138.09-0.87nne3.48--
5:54 PM497140.01-0.87ne3.48--
4:54 PM565138.13-0.87wnw6.08--
3:54 PM624339.25-0.87nnw4.34--
2:54 PM614237.74-2.61nw14.77--
1:54 PM624238.64-5.21nw15.64--
12:54 PM634340.15-3.48nw12.17--
11:54 AM565640.53-3.48nw15.64--
10:54 AM575440.52-3.48nnw13.9--
9:54 AM555940.94-4.34nw8.69--
8:54 AM507140.97-0.87wnw5.21--
7:54 AM398735.46-1.74ne6.08--
6:54 AM418938.01-0.87nnw5.21--
5:54 AM359333.18-2.61ne5.21--
4:54 AM359132.64-2.61nne5.21--
2:54 AM378833.78-1.74ne5.21--
1:54 AM388634.19-2.61ene5.21--
12:54 AM378934.06-2.61ne4.34--
High: 58ºf @2:54 PM    Low: 33ºf @4:54 AM     Approx. Precipitation / Rain Total: in.
Time (PST)Temp. (ºf)Humidity (%)Dew Point (ºf)Barometer (inHG)Wind Speed (mph)Wind DirectionWind Gust (mph)1hr. Precip / Rain Total (in.)Snow Depth
10:54 PM408636.16-2.61ne5.21--
9:54 PM408636.16-2.61ne5.21--
8:54 PM408836.74-0.87ene3.48--
7:54 PM418536.84-0.87ene4.34--
6:54 PM448238.86---2.61--
5:54 PM477740.17---5.21--
4:54 PM516840.81-0.87wsw6.08--
3:54 PM565941.88-0.87w7.82--
2:54 PM585340.96-2.61nnw11.3--
1:54 PM575942.81-2.61wnw11.3--
12:54 PM585843.31-3.48nw10.43--
11:54 AM566243.17-3.48nw10.43--
10:54 AM546944.06-3.48nw8.69--
9:54 AM527443.97-0.87wnw6.95--
8:54 AM478643.03-1.74wnw6.08--
7:54 AM419840.48-0.87nw3.48--
6:54 AM359834.49-0.87ene5.21--
5:54 AM349733.24-0.87nne3.48--
4:54 AM339631.99-2.61ne4.34--
3:54 AM349632.98-0.87ne3.48--
2:54 AM359533.72-1.74ne3.48--
1:54 AM359433.45-0.87ne3.48--
12:54 AM369334.18-1.74ne4.34--
High: 60ºf @1:54 PM    Low: 37ºf @11:54 PM     Approx. Precipitation / Rain Total: in.
Time (PST)Temp. (ºf)Humidity (%)Dew Point (ºf)Barometer (inHG)Wind Speed (mph)Wind DirectionWind Gust (mph)1hr. Precip / Rain Total (in.)Snow Depth
11:54 PM379234.9-1.74nne4.34--
10:54 PM399136.6-0.87ne3.48--
9:54 PM428738.42-0.87e3.48--
6:54 PM497340.73-0.87nne7.82--
5:54 PM536641.95-2.61nw7.82--
4:54 PM546241.28-1.74nw5.21--
3:54 PM576444.94---3.48--
2:54 PM595844.24-2.61sse5.21--
1:54 PM605644.26-0.87sse5.21--
12:54 PM595743.79-0.87ssw5.21--
11:54 AM566142.74-0.87sse6.08--
10:54 AM536943.1-1.74s6.08--
8:54 AM488844.62---6.08--
7:54 AM479044.22-2.61se6.95--
5:54 AM469143.52-1.74sse7.82--
4:54 AM469143.52-2.61se6.95--
12:54 AM498043.1-4.34se9.56--
High: 67ºf @1:54 PM    Low: 38ºf @2:54 AM     Approx. Precipitation / Rain Total: in.
Time (PST)Temp. (ºf)Humidity (%)Dew Point (ºf)Barometer (inHG)Wind Speed (mph)Wind DirectionWind Gust (mph)1hr. Precip / Rain Total (in.)Snow Depth
11:54 PM497842.44-5.21se10.43--
10:54 PM507542.39-5.21ese12.17--
9:54 PM507140.97-6.08ese13.03--
8:54 PM516439.26-6.08ese13.03--
7:54 PM525737.24-6.08ese12.17--
6:54 PM535235.85-6.08ese10.43--
5:54 PM554735.14-3.48se7.82--
4:54 PM574234.14-2.61se9.56--
3:54 PM623231.8-3.48sse11.3--
2:54 PM652831.1-2.61s12.17--
1:54 PM672832.82-4.34sse11.3--
12:54 PM662831.96-3.48sse11.3--
11:54 AM652931.97-2.61se8.69--
10:54 AM633232.68-2.61sse6.95--
9:54 AM555137.21---0.87--
8:54 AM496336.96-0.87ene1.74--
7:54 AM447235.56---2.61--
6:54 AM427233.64---2.61--
4:54 AM417232.68-0.87nne3.48--
3:54 AM407131.37---3.48--
2:54 AM387631.12---4.34--
1:54 AM397632.09-0.87ne4.34--
12:54 AM427233.64-0.87e5.21--
High: 68ºf @1:54 PM    Low: 32ºf @6:54 AM     Approx. Precipitation / Rain Total: in.
Time (PST)Temp. (ºf)Humidity (%)Dew Point (ºf)Barometer (inHG)Wind Speed (mph)Wind DirectionWind Gust (mph)1hr. Precip / Rain Total (in.)Snow Depth
11:54 PM427333.98-0.87ne4.34--
10:54 PM427434.32-1.74ne3.48--
8:54 PM456935.45-0.87ene3.48--
7:54 PM466735.67-0.87ne4.34--
6:54 PM476535.85-0.87ene3.48--
5:54 PM526138.97-0.87ne3.48--
4:54 PM614237.74-2.61se6.95--
2:54 PM663537.56-3.48sse9.56--
1:54 PM683136.23-5.21se11.3--
12:54 PM683237.03-3.48se8.69--
11:54 AM653536.68---3.48--
10:54 AM633534.92-0.87ssw5.21--
9:54 AM584938.95-1.74wnw6.08--
8:54 AM475933.42---3.48--
7:54 AM367227.86-2.61ne4.34--
6:54 AM327123.68-2.61n5.21--
5:54 AM327324.34-1.74nne3.48--
4:54 AM337425.63-1.74nne3.48--
3:54 AM327424.67-1.74nne3.48--
2:54 AM347225.94-1.74nne4.34--
1:54 AM327725.62-1.74nne3.48--
12:54 AM337927.21-0.87n3.48--
High: 49ºf @5:54 PM    Low: 34ºf @11:54 PM     Approx. Precipitation / Rain Total: in.
Time (PST)Temp. (ºf)Humidity (%)Dew Point (ºf)Barometer (inHG)Wind Speed (mph)Wind DirectionWind Gust (mph)1hr. Precip / Rain Total (in.)Snow Depth
11:54 PM347827.88-0.87nne4.34--
10:54 PM367428.53-0.87n4.34--
9:54 PM387430.46-2.61nne4.34--
7:54 PM428236.91-0.87ne3.48--
6:54 PM448439.48-0.87nne2.61--
5:54 PM497641.77-0.87ene3.48--
Past Weather Disclaimer Note regarding "Approx. Precipitation / Rain Total"

Currently

Light Rain Fog/Mist 42°F
29.79in
Barometer
89%
Humidity
East 5.8mph
Wind
Light Rain Fog/Mist

Past Weather Nearby

More Local Information

Bookmark and Share

Go Ad Free - Become a Member